Regional Weather Roundup
Issued by NWS

Home | Current Version | Previous Version | Text Only | Print | Product List | Glossary On
Versions: 1 2 3 4 5 6 7 8 9 10 11 12 13 14 15 16 17 18 19 20 21 22 23 24 25 26 27 28 29 30 31 32 33 34 35 36 37 38 39 40 41 42 43 44 45 46 47 48 49 50
000
ASUS43 KMPX 011201
RWRMN
WEATHER ROUNDUP FOR MINNESOTA
NATIONAL WEATHER SERVICE TWIN CITIES/CHANHASSEN MN
700 AM CDT SUN MAY 01 2016


NOTE: "FAIR" INDICATES FEW OR NO CLOUDS BELOW 12,000 FEET WITH NO
SIGNIFICANT WEATHER AND/OR OBSTRUCTIONS TO VISIBILITY. N/A MEANS
CURRENT SKY AND/OR WEATHER CONDITIONS ARE NOT AVAILABLE.

MNZ060>063-068>070-011300-
   Twin Cities Metro

CITY           SKY/WX    TMP DP  RH WIND       PRES   REMARKS
TWIN CITIES    CLOUDY    42  33  70 NE9       30.15R
6HR MIN TEMP:  41; 6HR MAX TEMP:  47;

ST PAUL        PTCLDY    42  33  70 N8        30.17R
CRYSTAL        MOCLDY    41  32  70 NE8G18    30.16R
BLAINE         MOCLDY    39  34  81 N10       30.16R
EDEN PRAIRIE   CLOUDY    42  32  67 N8        30.13R
6HR MIN TEMP:  41; 6HR MAX TEMP:  47;

SOUTH ST PAUL  CLOUDY    42  33  69 N8        30.15R
LAKE ELMO      FAIR      41  34  75 N7        30.16R
$$
MNZ001>005-007-008-013>017-022>024-027-028-011300-
   Northwest Minnesota

CITY           SKY/WX    TMP DP  RH WIND       PRES   REMARKS
BEMIDJI        CLEAR     29  26  89 CALM      30.28R
HALLOCK        CLEAR     34  27  75 CALM      30.31R
ROSEAU         CLEAR     34  28  80 N3        30.31R
WARROAD        PTCLDY    34  30  86 CALM      30.31S
THIEF RVR FALL CLEAR     36  25  64 CALM      30.31R
CROOKSTON      CLEAR     36  28  75 CALM      30.31S
FOSSTON        CLEAR     32  25  74 CALM      30.30R
DETROIT LAKES  CLEAR     37  32  81 NE6       30.28R
MOORHEAD       CLEAR     34  27  75 N5        30.30R WCI  30
PARK RAPIDS    CLEAR     37  29  72 N5        30.26R
MAHNOMEN       FAIR      31  29  90 NE3       30.28R
$$
MNZ006-009>011-018-025>026-011300-
   North Central Minnesota

CITY           SKY/WX    TMP DP  RH WIND       PRES   REMARKS
BAUDETTE       PTCLDY    34  28  79 E3        30.30R
FLAG ISLAND    CLEAR     39  34  81 CALM      30.31R
INTL FALLS     CLEAR     33  29  85 CALM      30.30R
6HR MIN TEMP:  28; 6HR MAX TEMP:  40;

WASKISH        CLEAR     32  30  93 CALM      30.29S
BIG FORK       CLEAR     28  27  93 CALM      30.29R
LONGVILLE      CLEAR     36  30  80 N3        30.26R
GRAND RAPIDS   CLEAR     30  27  86 NW5       30.28R WCI  25
CRANE LAKE     SUNNY     25  25 100 CALM      30.31S
ORR            CLEAR     28  25  86 CALM      30.27R
COOK           CLEAR     27  25  93 CALM      30.28R
WALKER         FAIR      28  27  93 CALM      30.27R
$$
MNZ012-019>021-037-011300-
   Northeast Minnesota

CITY           SKY/WX    TMP DP  RH WIND       PRES   REMARKS
DULUTH         SUNNY     35  27  72 NE6       30.23R WCI  30
6HR MIN TEMP:  32; 6HR MAX TEMP:  36;

ELY            SUNNY     30  27  86 CALM      30.27R
HIBBING        CLEAR     29  27  92 N5        30.26R WCI  24
EVELETH        SUNNY     34  30  86 N5        30.26S WCI  30
DULUTH HARBOR  PTSUNNY   39  34  81 NE14      30.25R
TWO HARBORS    SUNNY     39  30  70 N7        30.22S
SILVER BAY     SUNNY     37  30  75 N5        30.23R
GRAND MARAIS     N/A     43  32  65 NE7       30.25R
G MARAIS ARPRT SUNNY     34  28  80 N12       30.23S WCI  25
$$
MNZ029>031-032-039>041-046>048-054>057-064-011300-
   West Central Minnesota

CITY           SKY/WX    TMP DP  RH WIND       PRES   REMARKS
FERGUS FALLS   CLEAR     37  28  70 NE5       30.25S
WHEATON        CLEAR     37  30  75 N6        30.27R
MORRIS         CLEAR     36  28  75 N8        30.22R
ALEXANDRIA     CLEAR     37  28  70 NE10      30.23R
ELBOW LAKE     FAIR      38  30  74 E9        30.25R
WADENA         CLEAR     34  27  75 N7        30.25S WCI  28
GLENWOOD       CLEAR     37  30  75 N14       30.21R
APPLETON       CLEAR     36  30  80 N9        30.20S
BENSON         CLEAR     37  28  70 NE6       30.21R
ORTONVILLE     CLEAR     36  28  75 N10       30.22R
MADISON        PTCLDY    36  30  80 N12       30.20R
WILLMAR        FAIR      37  32  81 NE10      30.19R
$$
MNZ033>034-036-042>043-049>051-058-059-011300-
   Central Minnesota

CITY           SKY/WX    TMP DP  RH WIND       PRES   REMARKS
ST CLOUD       CLOUDY    37  30  75 N8        30.19R
6HR MIN TEMP:  34; 6HR MAX TEMP:  41;

SAUK CENTRE    FAIR      37  30  76 NE8       30.21R
PAYNESVILLE    CLEAR     36  31  82 NE9       30.20R
AITKIN         CLEAR     36  27  69 N3        30.23R
PINE RIVER     CLEAR     36  28  75 N6        30.28S
BRAINERD       CLEAR     35  28  75 NE7       30.25R WCI  29
STAPLES        CLEAR     32  27  80 N5        30.25R WCI  27
LONG PRAIRIE   FAIR      36  30  80 N10       30.22R
LITTLE FALLS   CLEAR     34  28  80 CALM      30.23R
LITCHFIELD     PTCLDY    37  34  87 NE8       30.18R
BUFFALO        PTCLDY    38  32  77 N7G16     30.19R
MAPLE LAKE     CLOUDY    38  33  82 N8        30.18S
HUTCHINSON     CLEAR     39  33  78 N10G16    30.17R
$$
MNZ037-044-045-052-053-011300-
   East Central Minnesota

CITY           SKY/WX    TMP DP  RH WIND       PRES   REMARKS
PRINCETON      PTCLDY    37  32  81 N9        30.20R
MORA           CLOUDY    36  30  80 NE7       30.22S
CAMBRIDGE      CLOUDY    39  30  70 N6        30.18R
RUSH CITY      PTCLDY    37  32  84 NE7       30.20R
MOOSE LAKE     PTCLDY    34  30  86 N6        30.21R WCI  29
HINCKLEY       FAIR      34  32  93 N7        30.21R WCI  28
CLOQUET        CLEAR     34  28  80 N6        30.23R WCI  29
MCGREGOR       CLEAR     34  30  86 N6        30.24R WCI  29
$$
MNZ071>073-080-081-089-090-097-098-011300-
   Southwest Minnesota

CITY           SKY/WX    TMP DP  RH WIND       PRES   REMARKS
MONTEVIDEO     CLOUDY    36  30  80 NE8       30.21R
GRANITE FALLS  CLOUDY    37  32  81 N9        30.19S
CANBY          CLEAR     37  33  85 NW7       30.20R
MARSHALL       CLOUDY    36  32  85 N7        30.17R
REDWOOD FALLS  CLOUDY    39  30  70 N6        30.16R
OLIVIA         MOCLDY    37  30  75 NE13      30.16R
PIPESTONE      CLOUDY    39  34  81 NE10G16   30.12R
WINDOM         DRIZZLE   39  36  87 N13       30.12R
WORTHINGTON    LGT RAIN  39  37  92 N16       30.12R
JACKSON        DRIZZLE   41  37  87 N14       30.10S
TRACY          CLOUDY    39  34  84 N8        30.16R
SLAYTON        LGT RAIN  38  36  91 N10       30.14R
$$
MNZ065>067-074>077-082>085-091>093-011300-
   South Central Minnesota

CITY           SKY/WX    TMP DP  RH WIND       PRES   REMARKS
MANKATO        CLOUDY    43  34  70 N13       30.12R
NEW ULM        CLOUDY    39  34  81 N10       30.13R
ST JAMES       CLOUDY    36  32  87 N10       30.13R
FAIRMONT       CLOUDY    43  34  70 N13       30.09R
GLENCOE        CLOUDY    40  35  81 N7        30.15R
FARIBAULT      CLOUDY    43  36  75 N8        30.11S
OWATONNA       CLOUDY    43  36  75 N12       30.10R
WASECA         CLOUDY    41  36  81 N12       30.11R
ALBERT LEA     CLOUDY    43  41  93 N9        30.07R
$$
MNZ078>079-086>088-094>096-011300-
   Southeast Minnesota

CITY           SKY/WX    TMP DP  RH WIND       PRES   REMARKS
ROCHESTER      CLOUDY    43  41  93 NE8       30.08R
6HR MIN TEMP:  42; 6HR MAX TEMP:  43;

RED WING       CLOUDY    45  32  61 NE10      30.11R
STANTON        CLOUDY    43  35  75 N10       30.11R
DODGE CENTER   CLOUDY    41  41 100 NE12      30.08S
WINONA         CLOUDY    46  37  71 E3        30.10R
AUSTIN         CLOUDY    43  37  81 N9        30.06S
PRESTON        CLOUDY    42  37  84 N8        30.07R
$$
ABBREVIATIONS USED IN REMARKS
   TC - TEMPERATURES IN CELSIUS
  WCI - WIND CHILL INDEX
   HX - HEAT INDEX
  VSB - VISIBILITY
$$




USA.gov is the U.S. government's official web portal to all federal, state and local government web resources and services.